Location: Tamazert
(32.6352°N, 5.2072°W)
Time: 20:23:12
(UTC+00:00)

BlueWalker 3 - Visible Passes

Search period start: 28 February 2024 00:00
Search period end: 09 March 2024 00:00
Orbit: 485 x 500 km, 53.2° (Epoch: 28 February)

Date Brightness Start Highest point End Pass type
(mag) Time Alt. Az. Time Alt. Az. Time Alt. Az.
03 Mar 4.3 20:30:02 10° NW 20:31:09 18° NNW 20:31:09 18° NNW visible
04 Mar 3.0 20:06:07 10° NW 20:08:38 36° NNW 20:08:38 36° NNW visible
05 Mar 2.0 19:42:12 10° NNW 19:45:53 51° NE 19:46:13 49° ENE visible
06 Mar 2.1 19:18:16 10° NNW 19:21:56 49° NE 19:23:56 23° ESE visible
06 Mar 5.1 20:57:59 10° W 20:58:28 11° W 20:58:28 11° W visible
07 Mar 2.2 18:54:19 10° NNW 18:57:58 46° NE 19:01:35 10° ESE visible
07 Mar 4.6 20:33:53 10° W 20:35:53 14° WSW 20:36:21 14° SW visible
08 Mar 4.7 20:09:47 10° W 20:11:55 15° WSW 20:14:03 10° SSW visible
